Location: Allos
(44.2333°N, 6.6333°E)
Time: 23:31:50
(UTC+00:00)

SAR-Lupe-4 - Pass Details

Date: 21 April 2021
Orbit: 483 x 483 km, 98.2° (Epoch: 13 April)

Event Time Altitude Azimuth Distance (km) Brightness Sun altitude
Rises 19:38:27 0° 1° (N) 2,560 7.7 -12.7°
Reaches altitude 10° 19:40:47 10° 347° (NNW) 1,674 6.9 -13.1°
Maximum altitude 19:43:42 24° 292° (WNW) 1,042 6.2 -13.5°
Drops below altitude 10° 19:46:38 10° 237° (WSW) 1,663 6.6 -14.0°
Sets 19:48:56 0° 224° (SW) 2,538 7.3 -14.3°
